Regional Weather Roundup
Issued by NWS

Home | Current Version | Previous Version | Graphics & Text | Print | Product List | Glossary On
Versions: 1 2 3 4 5 6 7 8 9 10 11 12 13 14 15 16 17 18 19 20 21 22 23 24 25 26 27 28 29 30 31 32 33 34 35 36 37 38 39 40 41 42 43 44 45 46 47 48 49 50
000
ASUS43 KDTX 021610
RWRMI
MICHIGAN HOURLY REGIONAL WEATHER ROUNDUP
NATIONAL WEATHER SERVICE DETROIT/PONTIAC MI
1200 PM EDT TUE SEP 02 2014

NOTE: "FAIR" INDICATES FEW OR NO CLOUDS BELOW 12,000 FEET WITH NO
SIGNIFICANT WEATHER AND/OR OBSTRUCTION TO VISIBILITY.

MIZ047>049-052>055-059>063-066>070-074>076-081>083-021700-
SOUTHEAST LOWER MICHIGAN

CITY           SKY/WX    TMP DP  RH WIND       PRES   REMARKS
ADRIAN         LGT RAIN  68  67  96 W7        29.91S
ALMA           MOSUNNY   75  59  57 W10       29.89S
ANN ARBOR      PTSUNNY   72  68  87 S8        29.88R
BAD AXE        PTSUNNY   75  65  71 W10       29.86S
DETROIT CITY   LGT RAIN  73  68  84 SW9       29.88R
DETROIT        CLOUDY    70  68  94 S10       29.88S
FLINT          MOSUNNY   77  62  59 W7        29.88R
GROSSE ILE     LGT RAIN  70  66  88 SW8       29.88R
HILLSDALE      CLOUDY    73  69  87 W6        29.91S
HOWELL         PTSUNNY   73  63  72 W6        29.88S

CITY           SKY/WX    TMP DP  RH WIND       PRES   REMARKS
JACKSON        PTSUNNY   74  66  76 VRB6      29.90R
LAMBERTVILLE   LGT RAIN  70  64  83 SW5       29.90F
LANSING        PTSUNNY   73  60  63 W7        29.90R
LAPEER         NOT AVBL
MASON          PTSUNNY   73  63  69 W8        29.89S
MONROE         CLOUDY    70  66  88 SW10      29.88S
MT. CLEMENS    CLOUDY    72  68  88 SW6       29.85S
PONTIAC        PTSUNNY   74  64  71 W12       29.87R
PORT HOPE        N/A     72  66  81 MISG      29.84R
PORT HURON     CLOUDY    70  70 100 MISG      29.86S
TRI CITIES     MOSUNNY   76  60  57 W10       29.88R
YPSILANTI      LGT RAIN  74  67  78 S9        29.88F
$$
MIZ043>046-050>051-056>058-064>065-071>073-077>080-021700-
SOUTHWEST LOWER MICHIGAN

CITY           SKY/WX    TMP DP  RH WIND       PRES   REMARKS
BATTLE CREEK   PTSUNNY   75  60  59 NW8       29.91S
BENTON HARBOR  PTSUNNY   71  64  78 CALM      29.91S
BIG RAPIDS     MOSUNNY   74  56  52 NW10G23   29.89S
COLDWATER      PTSUNNY   74  68  81 SW7       29.91S
HOLLAND        MOSUNNY   77  64  64 SW8       29.91R
GRAND RAPIDS   PTSUNNY   76  60  57 NW10      29.90R
KALAMAZOO      PTSUNNY   74  61  63 CALM      29.91R
MARSHALL       PTSUNNY   73  64  71 NW7       29.90S
MUSKEGON       MOSUNNY   77  55  46 W7        29.89S
$$
MIZ016>042-021700-
NORTHERN LOWER MICHIGAN

CITY           SKY/WX    TMP DP  RH WIND       PRES   REMARKS
ALPENA         MOSUNNY   74  58  57 W8        29.84R
BEAVER ISLAND  SUNNY     68  59  73 SW9       29.85R
BELLAIRE       SUNNY     73  56  55 W7        29.85S
CADILLAC       SUNNY     71  57  61 W10       29.89S
CHARLEVOIX     SUNNY     71  62  73 W8        29.88S
FRANKFORT      MOSUNNY   70  60  71 SW6       29.88R
GAYLORD        MOSUNNY   69  52  54 W14       29.87S
GRAYLING       MOSUNNY   74  56  53 W13       29.87S
HARBOR SPRINGS SUNNY     70  62  76 W7        29.85R
HOUGHTON LAKE  MOSUNNY   72  57  59 W14       29.88R
MANISTEE       MOSUNNY   72  57  60 W7        29.89S
OSCODA         PTSUNNY   75  60  60 W8        29.84S
PELLSTON       SUNNY     72  57  59 SW9       29.84R
TRAVERSE CITY  PTSUNNY   75  54  47 W12       29.85S
$$
MIZ007>008-015-021700-
EASTERN UPPER MICHIGAN

CITY           SKY/WX    TMP DP  RH WIND       PRES   REMARKS
KINROSS        MOSUNNY   70  59  68 W13       29.81S
MACKINAC ISLAN SUNNY     65  62  87 W9        29.83R
NEWBERRY       MOSUNNY   69  56  63 W9G23     29.82S
S. S. MARIE    MOSUNNY   68  58  70 W6        29.81S
$$
MIZ004>006-011>014-085-021700-
CENTRAL UPPER MICHIGAN

CITY           SKY/WX    TMP DP  RH WIND       PRES   REMARKS
MANISTIQUE     MOSUNNY   69  59  69 SW6       29.83R
ESCANABA       PTSUNNY   72  55  56 S3        29.83F
MENOMINEE      CLOUDY    61  55  82 SW7       29.86S
SAWYER-GWINN   MOSUNNY   66  55  68 SW10      29.83S
$$
MIZ001>003-009>011-084-021700-
WESTERN UPPER MICHIGAN

CITY           SKY/WX    TMP DP  RH WIND       PRES   REMARKS
IRON MOUNTAIN  CLOUDY    64  56  75 W5        29.84R
HOUGHTON       MOSUNNY   67  56  67 W13       29.80S
COPPER HARBOR    N/A     66  54  65 N10       29.77R
$$

ABBREVIATIONS USED IN REMARKS
   TC - TEMPERATURE IN CELSIUS
  WCI - WIND CHILL INDEX
   HX - HEAT INDEX
  VSB - VISIBILITY



USA.gov is the U.S. government's official web portal to all federal, state and local government web resources and services.